Hourly Data Report for September 23, 2017

All times are specified in Local Standard Time (LST). Add 1 hour to adjust for Daylight Saving Time where and when it is observed.

FISHER BRANCH (AUT)
MANITOBA

51°05'00.100" N
97°33'16.200" W
253.00 m
50309J6
71442
WSZ

Download Data

Hourly Data (September 2017)
Hourly Data Report for September 23, 2017
Temp Definition
°C
Dew Point Temp Definition
°C
Rel Hum Definition
%
Wind Dir Definition
10's deg

Wind Spd Definition
km/h
Visibility Definition
km
Stn Press Definition
kPa
Hmdx Definition


Wind Chill Definition


Weather Definition


TIME
00:00 9.1 8.0 93 35 13   98.31     LegendNANA
01:00 9.1 8.1 94 32 13   98.43     LegendNANA
02:00 9.0 8.1 94 32 11   98.43     LegendNANA
03:00 9.0 8.0 94 32 13   98.44     LegendNANA
04:00 9.0 8.0 93 32 11   98.49     LegendNANA
05:00 9.0 7.9 93 32 10   98.54     LegendNANA
06:00 8.9 7.6 92 34 12   98.45     LegendNANA
07:00 9.0 7.8 92 32 13   98.60     LegendNANA
08:00 9.3 7.9 91 32 11   98.65     LegendNANA
09:00 9.9 8.0 88 33 13   98.69     LegendNANA
10:00 10.8 8.0 83 33 15   98.78     LegendNANA
11:00 11.2 7.8 80 32 13   98.86     LegendNANA
12:00 12.4 7.7 73 33 15   98.85     LegendNANA
13:00 13.5 8.2 70 33 15   98.84     LegendNANA
14:00 13.2 7.4 68 33 13   98.86     LegendNANA
15:00 13.3 7.8 69 33 13   98.88     LegendNANA
16:00 13.4 7.1 65 35 14   98.89     LegendNANA
17:00 13.4 7.3 66 34 16   98.94     LegendNANA
18:00 11.6 7.9 78 34 7   98.94     LegendNANA
19:00 10.0 7.5 85 33 6   98.98     LegendNANA
20:00 8.4 6.6 89 36 3   99.03     LegendNANA
21:00 9.1 7.4 89 34 8   98.95     LegendNANA
22:00 8.2 6.8 91 33 6   98.97     LegendNANA
23:00 7.5 6.6 94 33 7   98.91     LegendNANA

Notes on Data Quality.

Legend

  • E = Estimated
  • M = Missing
  • NA = Not Available
  • ‡ = Partner data that is not subject to review by the National Climate Archives
Date modified: